Weather History for Valley, United Kingdom

Change the Weather History Date:

Monday, October 15, 2012

  Actual Average Record
Temperature  
Mean Temperature 48 °F -  
Max Temperature 54 °F 54 °F 68 °F (2005)
Min Temperature 43 °F 45 °F 42 °F (1999)
Degree Days  
Heating Degree Days 16    
Moisture  
Dew Point 45 °F    
Average Humidity 84    
Maximum Humidity 100    
Minimum Humidity 61    
Precipitation  
Precipitation 0.04 in 0.12 in - ()
Sea Level Pressure  
Sea Level Pressure 29.49 in    
Wind  
Wind Speed 5 mph ()    
Max Wind Speed 14 mph    
Max Gust Speed -    
Visibility 6.1 miles    
Events Rain    
Averages and records for this station are not official NWS values.
T = Trace of Precipitation, MM = Missing Value Source: Averaged Metar Reports

Daily Weather History Graph

Daily Weather History Graph

Search for Another Location

Airport:

Trip Planner

Search our weather history database for the weather conditions in past years. The results will help you decide how hot, cold, wet, or windy it might be!

Date:

Astronomy

Oct. 15, 2012 Rise Set
Actual Time 7:45 AM BST 6:21 PM BST
Civil Twilight 7:10 AM BST 6:56 PM BST
Nautical Twilight 6:29 AM BST 7:36 PM BST
Astronomical Twilight 5:49 AM BST 8:16 PM BST
Moon 7:45 AM BST (10/15) 6:01 PM BST (10/15)
Length of Visible Light 11h 46m
Length of Day
10h 36m
Waning Crescent, 0% of the Moon is Illuminated
Oct 15
Waning Crescent
Oct 15
New
Oct 22
First Quarter
Oct 29
Full
Nov 7
Last Quarter

Hourly Weather History & Observations

Time (BST) Temp. Windchill Dew Point Humidity Pressure Visibility Wind Dir Wind Speed Gust Speed Precip Events Conditions
12:50 AM 46 °F - 43 °F 84% 29.62 in 31 mi East 4.6 mph - -   Scattered Clouds
12:50 AM 46.4 °F 44.3 °F 42.8 °F 87% 29.62 in 6.2 mi East 4.6 mph - N/A   Mostly Cloudy
1:50 AM 46.4 °F 44.3 °F 42.8 °F 87% 29.59 in 6.2 mi ESE 4.6 mph - N/A Rain Light Rain Showers
2:50 AM 46.4 °F - 44.6 °F 93% 29.59 in 5.6 mi NNE 1.2 mph - N/A Rain Rain
3:50 AM 46 °F - 44 °F 92% 29.59 in 31 mi SE 4.6 mph - - Rain Rain
3:50 AM 46.4 °F 44.3 °F 44.6 °F 93% 29.56 in 6.2 mi SE 4.6 mph - N/A   Mostly Cloudy
4:50 AM 44.6 °F - 44.6 °F 100% 29.56 in 6.2 mi East 1.2 mph - N/A   Scattered Clouds
5:50 AM 46.4 °F - 44.6 °F 93% 29.56 in 6.2 mi ENE 1.2 mph - N/A Rain Light Rain
6:50 AM 45 °F - 44 °F 94% 29.56 in 25 mi South 3.5 mph - - Rain Light Rain Showers
6:50 AM 44.6 °F 43.1 °F 44.6 °F 100% 29.56 in 6.2 mi South 3.5 mph - N/A   Mostly Cloudy
7:50 AM 46.4 °F 44.3 °F 44.6 °F 93% 29.53 in 6.2 mi South 4.6 mph - N/A   Mostly Cloudy
8:50 AM 46.4 °F 43.5 °F 44.6 °F 93% 29.53 in 6.2 mi East 5.8 mph - N/A Rain Light Rain Showers
9:50 AM 49 °F - 45 °F 83% 29.55 in 31 mi WNW 5.8 mph - - Rain Light Rain Showers
9:50 AM 48.2 °F - 44.6 °F 87% 29.53 in 6.2 mi WNW 5.8 mph - N/A   Scattered Clouds
10:50 AM 51.8 °F - 44.6 °F 76% 29.53 in 6.2 mi WNW 9.2 mph - N/A   Partly Cloudy
11:50 AM 50.0 °F - 44.6 °F 82% 29.53 in 6.2 mi NNW 5.8 mph - N/A   Scattered Clouds
12:50 PM 53 °F - 44 °F 64% 29.52 in 28 mi West 11.5 mph - -   Partly Cloudy
12:50 PM 53.6 °F - 44.6 °F 72% 29.50 in 6.2 mi West 11.5 mph - N/A   Scattered Clouds
1:50 PM 51.8 °F - 41.0 °F 67% 29.50 in 6.2 mi West 10.4 mph - N/A   Mostly Cloudy
2:50 PM 51.8 °F - 41.0 °F 67% 29.47 in 6.2 mi WSW 10.4 mph - N/A   Mostly Cloudy
3:50 PM 52 °F - 42 °F 61% 29.49 in 37 mi WSW 8.1 mph - -   Mostly Cloudy
3:50 PM 51.8 °F - 42.8 °F 71% 29.47 in 6.2 mi WSW 8.1 mph - N/A   Mostly Cloudy
4:50 PM 51.8 °F - 42.8 °F 71% 29.44 in 6.2 mi SW 5.8 mph - N/A   Mostly Cloudy
5:50 PM 51.8 °F - 44.6 °F 76% 29.44 in 6.2 mi SSW 6.9 mph - N/A   Mostly Cloudy
6:50 PM 51 °F - 44 °F 70% 29.42 in 25 mi South 9.2 mph - -   Partly Cloudy
6:50 PM 51.8 °F - 44.6 °F 76% 29.42 in 6.2 mi South 9.2 mph - N/A   Mostly Cloudy
7:50 PM 50.0 °F - 46.4 °F 87% 29.39 in 6.2 mi SE 8.1 mph - N/A Rain Light Rain
8:50 PM 50.0 °F - 46.4 °F 87% 29.36 in 6.2 mi ESE 9.2 mph - N/A Rain Light Rain
9:50 PM 50 °F - 48 °F 92% 29.32 in 11 mi ESE 9.2 mph - - Rain Light Rain
9:50 PM 50.0 °F - 48.2 °F 94% 29.30 in 6.2 mi ESE 9.2 mph - N/A Rain Light Rain
10:50 PM 50.0 °F - 48.2 °F 94% 29.27 in 3.1 mi SE 11.5 mph - N/A Rain Rain
11:50 PM 50.0 °F - 48.2 °F 94% 29.27 in 2.8 mi WSW 13.8 mph - N/A Rain Heavy Rain